Notices

What's New in latest Release from April 7th, 2021:

- Updated Glossary, including Speed of Maximum Gust, and Total Hourly Precipitation

- Updated national and regional climate services offices contacts and prices information

- Addition of station inventory lists for 1981-2010, 1971-2000, and 1961-1990 Normals.

If you haven't already, please take our survey and provide feedback about our website: https://eccc.sondage-survey.ca/f/LanguageSelection.aspx?s=442ca660-fcf1-47c0-95a9-59707d6fd709

Hourly Data Report for December 17, 2020

SHEARWATER RCS
NOVA SCOTIA
Current Station Operator: ECCC - MSC

44°37'47.000" N
63°30'48.000" W
24.00 m
8205092
71264
AAW

Download Data

Hourly Data (December 2020)
Hourly Data Report for December 17, 2020
TIME
LST
Temp Definition
°C
Dew Point Definition
°C
Rel Hum Definition
%
Precip. Amount Definition
mm

Wind Dir Definition
10's deg

Wind Spd Definition
km/h
Visibility Definition
km
Stn Press Definition
kPa
Hmdx Definition


Wind Chill Definition


Weather Definition


00:00 -8.0 -14.8 58 0.0 34 15   102.36   -14 LegendNANA
01:00 -8.5 -14.8 60 0.0 36 9   102.36   -13 LegendNANA
02:00 -8.6 -14.8 60 0.0 35 10   102.35   -14 LegendNANA
03:00 -8.8 -14.9 61 0.0 36 7   102.31   -13 LegendNANA
04:00 -9.0 -14.5 64 0.0 36 10   102.30   -14 LegendNANA
05:00 -9.3 -14.1 68 0.0 3 8   102.26   -14 LegendNANA
06:00 -9.2 -13.0 74 0.0 2 9   102.28   -14 LegendNANA
07:00 -8.8 -11.8 79 0.0 3 11   102.21   -14 LegendNANA
08:00 -8.4 -11.1 80 0.0 3 11   102.03   -14 LegendNANA
09:00 -7.5 -10.3 80 0.0 4 19   101.80   -15 LegendNANA
10:00 -6.4 -9.5 78 0.0 5 20   101.88   -13 LegendNANA
11:00 -5.3 -8.6 77 0.0 5 18   101.84   -12 LegendNANA
12:00 -4.2 -7.9 75 0.0 4 19   101.65   -10 LegendNANA
13:00 -3.7 -6.8 79 0.0 3 19   101.49   -10 LegendNANA
14:00 -3.2 -5.4 85 0.0 4 22   101.28   -10 LegendNANA
15:00 -2.9 -4.6 88 0.5 4 25   101.23   -10 LegendNANA
16:00 -3.0 -5.0 86 0.3 2 22   101.22   -9 LegendNANA
17:00 -3.3 -4.4 92 1.1 3 23   101.22   -10 LegendNANA
18:00 -3.4 -4.3 93 1.0 2 23   101.17   -10 LegendNANA
19:00 -3.4 -4.2 94 1.4 2 26   101.12   -10 LegendNANA
20:00 -3.3 -4.0 95 1.5 3 28   100.97   -11 LegendNANA
21:00 -3.0 -3.8 94 1.1 3 25   100.94   -10 LegendNANA
22:00 -2.6 -3.4 94 0.9 2 25   100.92   -9 LegendNANA
23:00 -2.7 -3.4 95 1.3 1 17   100.99   -8 LegendNANA

Notes on Data Quality.

Legend

  • E = Estimated
  • M = Missing
  • NA = Not Available*
  • [empty] = Indicates an unobserved value
Date modified: